Weather History for West Palm Beach, FL

Change the Weather History Date:

Sunday, February 19, 2012

  Actual Average Record
Temperature  
Mean Temperature 78 °F 68 °F  
Max Temperature 87 °F 77 °F 87 °F (2012)
Min Temperature 68 °F 60 °F 33 °F (1900)
Degree Days  
Heating Degree Days 0 2  
Month to date heating degree days 22 38  
Since 1 July heating degree days 109 195  
Cooling Degree Days 13 5  
Month to date cooling degree days 127 83  
Year to date cooling degree days 232 191  
Growing Degree Days 26 (Base 50)    
Moisture  
Dew Point 68 °F    
Average Humidity 74    
Maximum Humidity 93    
Minimum Humidity 55    
Precipitation  
Precipitation T in 0.10 in 2.00 in (1904)
Month to date precipitation 2.95 1.83  
Year to date precipitation 3.33 4.96  
Snow  
Snow 0.00 in - - ()
Month to date snowfall 0.0  
Since 1 July snowfall 0.0  
Snow Depth 0.00 in    
Sea Level Pressure  
Sea Level Pressure 29.90 in    
Wind  
Wind Speed 13 mph (SW)    
Max Wind Speed 24 mph    
Max Gust Speed 32 mph    
Visibility 10 miles    
Events      
T = Trace of Precipitation, MM = Missing Value Source: NWS Daily Summary

Daily Weather History Graph

Daily Weather History Graph

Search for Another Location

Airport:

Trip Planner

Search our weather history database for the weather conditions in past years. The results will help you decide how hot, cold, wet, or windy it might be!

Date:

Astronomy

Feb. 19, 2012 Rise Set
Actual Time 6:53 AM EST 6:15 PM EST
Civil Twilight 6:30 AM EST 6:38 PM EST
Nautical Twilight 6:03 AM EST 7:05 PM EST
Astronomical Twilight 5:36 AM EST 7:32 PM EST
Moon 5:04 AM EST (2/19) 4:21 PM EST (2/19)
Length of Visible Light 12h 08m
Length of Day
11h 21m
Waning Crescent, 5% of the Moon is Illuminated
Feb 19
Waning Crescent
Feb 21
New
Feb 29
First Quarter
Mar 8
Full
Mar 14
Last Quarter

Hourly Weather History & Observations

Time (EST) Temp. Heat Index Dew Point Humidity Pressure Visibility Wind Dir Wind Speed Gust Speed Precip Events Conditions
12:53 AM 70.0 °F - 66.0 °F 87% 29.93 in 10.0 mi South 3.5 mph - N/A   Partly Cloudy
1:53 AM 69.1 °F - 66.0 °F 90% 29.93 in 10.0 mi SSW 5.8 mph - N/A   Partly Cloudy
2:53 AM 68.0 °F - 66.0 °F 93% 29.92 in 10.0 mi SSW 5.8 mph - N/A   Partly Cloudy
3:53 AM 69.1 °F - 66.0 °F 90% 29.90 in 10.0 mi South 6.9 mph - N/A   Partly Cloudy
4:53 AM 70.0 °F - 66.0 °F 87% 29.90 in 10.0 mi South 6.9 mph - N/A   Scattered Clouds
5:53 AM 69.1 °F - 66.0 °F 90% 29.92 in 10.0 mi SSW 6.9 mph - N/A   Clear
6:53 AM 69.1 °F - 66.9 °F 93% 29.94 in 10.0 mi South 6.9 mph - N/A   Partly Cloudy
7:53 AM 71.1 °F - 68.0 °F 90% 29.94 in 10.0 mi SSW 8.1 mph - N/A   Scattered Clouds
8:53 AM 75.0 °F - 70.0 °F 84% 29.96 in 10.0 mi SSW 11.5 mph - N/A   Scattered Clouds
9:25 AM 77.0 °F - 69.8 °F 78% 29.95 in 10.0 mi SSW 15.0 mph - N/A   Mostly Cloudy
9:53 AM 79.0 °F - 70.0 °F 74% 29.94 in 10.0 mi SW 16.1 mph - N/A   Mostly Cloudy
10:09 AM 80.6 °F 83.9 °F 69.8 °F 70% 29.94 in 10.0 mi SW 16.1 mph - N/A   Mostly Cloudy
10:53 AM 81.0 °F 84.1 °F 69.1 °F 67% 29.93 in 10.0 mi SSW 16.1 mph 23.0 mph N/A   Mostly Cloudy
11:53 AM 84.0 °F 87.0 °F 68.0 °F 58% 29.91 in 10.0 mi WSW 17.3 mph 26.5 mph N/A   Mostly Cloudy
12:53 PM 82.9 °F 85.4 °F 66.9 °F 58% 29.89 in 10.0 mi WSW 19.6 mph 27.6 mph N/A   Mostly Cloudy
1:53 PM 84.9 °F 87.6 °F 66.9 °F 55% 29.87 in 10.0 mi SW 15.0 mph - N/A   Mostly Cloudy
2:53 PM 84.9 °F 87.1 °F 66.0 °F 53% 29.85 in 10.0 mi SW 17.3 mph 27.6 mph N/A   Mostly Cloudy
3:53 PM 84.9 °F 87.1 °F 66.0 °F 53% 29.83 in 10.0 mi WSW 16.1 mph 27.6 mph N/A   Mostly Cloudy
4:53 PM 84.0 °F 86.5 °F 66.9 °F 56% 29.83 in 10.0 mi WSW 18.4 mph 32.2 mph N/A   Mostly Cloudy
5:53 PM 81.0 °F 83.8 °F 68.0 °F 65% 29.84 in 10.0 mi WSW 17.3 mph 25.3 mph N/A   Mostly Cloudy
6:53 PM 79.0 °F - 69.1 °F 72% 29.86 in 10.0 mi SW 16.1 mph 24.2 mph N/A   Mostly Cloudy
7:53 PM 77.0 °F - 70.0 °F 79% 29.87 in 10.0 mi SW 16.1 mph - N/A   Mostly Cloudy
8:34 PM 75.2 °F - 69.8 °F 83% 29.88 in 10.0 mi WSW 13.8 mph - N/A   Mostly Cloudy
8:53 PM 75.9 °F - 70.0 °F 82% 29.88 in 10.0 mi WSW 16.1 mph 21.9 mph N/A   Mostly Cloudy
9:26 PM 75.2 °F - 69.8 °F 83% 29.89 in 10.0 mi West 18.4 mph - 0.00 in   Mostly Cloudy
9:53 PM 73.9 °F - 68.0 °F 82% 29.90 in 10.0 mi West 17.3 mph 25.3 mph 0.00 in   Mostly Cloudy
10:53 PM 72.0 °F - 66.0 °F 81% 29.92 in 10.0 mi West 18.4 mph 23.0 mph N/A   Scattered Clouds
11:53 PM 68.0 °F - 61.0 °F 78% 29.94 in 10.0 mi WNW 15.0 mph - N/A   Scattered Clouds